Change the Weather History Date:

Tuesday, October 1, 2013

  Actual Average Record
Temperature  
Mean Temperature 75 °F -  
Max Temperature 84 °F 87 °F 93 °F (1997)
Min Temperature 66 °F 75 °F 66 °F (2012)
Cooling Degree Days 10    
Growing Degree Days 25 (Base 50)    
Moisture  
Dew Point 70 °F    
Average Humidity 84    
Maximum Humidity 100    
Minimum Humidity 66    
Precipitation  
Precipitation 0.00 in - - ()
Sea Level Pressure  
Sea Level Pressure 29.91 in    
Wind  
Wind Speed 3 mph ()    
Max Wind Speed 12 mph    
Max Gust Speed -    
Visibility 7.3 miles    
Events      
Averages and records for this station are not official NWS values.
T = Trace of Precipitation, MM = Missing Value Source: Averaged Metar Reports

Daily Weather History Graph

Daily Weather History Graph

Search for Another Location

Airport or City:

Trip Planner

Search our weather history database for the weather conditions in past years. The results will help you decide how hot, cold, wet, or windy it might be!

Date:

Astronomy

Oct. 01, 2013 Rise Set
Actual Time 6:38 AM CDT 6:35 PM CDT
Civil Twilight 6:16 AM CDT 6:57 PM CDT
Nautical Twilight 5:51 AM CDT 7:23 PM CDT
Astronomical Twilight 5:25 AM CDT 7:48 PM CDT
Moon 3:35 AM CDT (10/1) 4:20 PM CDT (10/1)
Length of Visible Light 12h 40m
Length of Day
11h 56m
Waning Crescent, 12% of the Moon is Illuminated
Oct 1
Waning Crescent
Oct 4
New
Oct 11
First Quarter
Oct 18
Full
Oct 26
Last Quarter

Hourly Weather History & Observations

Time (CDT) Temp. Heat Index Dew Point Humidity Pressure Visibility Wind Dir Wind Speed Gust Speed Precip Events Conditions
12:44 AM 69.8 °F - 68.0 °F 94% 29.92 in 7.0 mi ESE 3.5 mph - N/A   Clear
1:40 AM 68.0 °F - 68.0 °F 100% 29.92 in 7.0 mi Calm Calm - N/A   Clear
2:43 AM 68.0 °F - 68.0 °F 100% 29.89 in 7.0 mi Calm Calm - N/A   Clear
3:42 AM 66.2 °F - 66.2 °F 100% 29.92 in 7.0 mi Calm Calm - N/A   Clear
4:47 AM 66.2 °F - 66.2 °F 100% 29.89 in 7.0 mi Calm Calm - N/A   Clear
5:41 AM 66.2 °F - 66.2 °F 100% 29.90 in 7.0 mi Calm Calm - N/A   Clear
6:42 AM 66.2 °F - 66.2 °F 100% 29.89 in 8.0 mi East 3.5 mph - N/A   Clear
7:48 AM 69.8 °F - 69.8 °F 100% 29.93 in 7.0 mi Calm Calm - N/A   Clear
8:44 AM 78.8 °F - 71.6 °F 78% 29.94 in 7.0 mi Calm Calm - N/A   Clear
9:45 AM 80.6 °F 84.6 °F 71.6 °F 74% 29.97 in 7.0 mi NNE 4.6 mph - N/A   Partly Cloudy
10:44 AM 82.4 °F 87.2 °F 71.6 °F 70% 29.94 in 7.0 mi NE 8.1 mph - N/A   Scattered Clouds
11:40 AM 82.4 °F 86.3 °F 69.8 °F 66% 29.94 in 8.0 mi NNE 8.1 mph - N/A   Scattered Clouds
12:40 PM 84.2 °F 89.6 °F 71.6 °F 66% 29.89 in 8.0 mi ENE 8.1 mph - N/A   Mostly Cloudy
1:41 PM 84.2 °F 89.6 °F 71.6 °F 66% 29.92 in 8.0 mi ENE 9.2 mph - N/A   Mostly Cloudy
2:41 PM 84.2 °F 89.6 °F 71.6 °F 66% 29.89 in 8.0 mi ENE 9.2 mph - N/A   Scattered Clouds
3:50 PM 82.4 °F 87.2 °F 71.6 °F 70% 29.91 in 8.0 mi NE 11.5 mph - N/A   Scattered Clouds
4:49 PM 82.4 °F 86.3 °F 69.8 °F 66% 29.87 in 8.0 mi NE 11.5 mph - N/A   Partly Cloudy
5:43 PM 80.6 °F 84.6 °F 71.6 °F 74% 29.87 in 8.0 mi ENE 6.9 mph - N/A   Clear
7:01 PM 77.0 °F - 71.6 °F 83% 29.86 in 7.0 mi NE 4.6 mph - N/A   Partly Cloudy
7:41 PM 75.2 °F - 71.6 °F 89% 29.89 in 7.0 mi Calm Calm - N/A   Partly Cloudy
8:46 PM 75.2 °F - 71.6 °F 89% 29.91 in 7.0 mi ENE 4.6 mph - N/A   Partly Cloudy
9:40 PM 75.2 °F - 71.6 °F 89% 29.95 in 7.0 mi ENE 3.5 mph - N/A   Partly Cloudy
10:41 PM 77.0 °F - 73.4 °F 89% 29.93 in 7.0 mi NE 9.2 mph - N/A   Partly Cloudy
11:42 PM 75.2 °F - 71.6 °F 89% 29.93 in 7.0 mi ENE 4.6 mph - N/A   Partly Cloudy